Location: *
(40.4270°N, 9.4940°E)
Time: 00:04:50
(UTC+02:00)

Daily predictions for brighter satellites

Satellite Brightness Start Highest point End
(mag) Time Altitude Azimuth Time Altitude Azimuth Time Altitude Azimuth
Cosmos 1869 Rocket 3.7 00:10:33 62° E 00:10:33 62° E 00:14:48 10° NNE
Cosmos 468 4.4 00:05:46 10° NNW 00:11:07 88° W 00:11:55 66° SSE
Cosmos 2074 Rocket 4.4 00:14:27 42° ESE 00:15:33 47° E 00:21:33 10° NNE
ALOS 2 3.5 00:18:48 36° ENE 00:18:52 36° ENE 00:22:54 10° N
NOSS 2-3 (E) 4.3 00:21:13 49° E 00:21:13 49° E 00:25:59 10° NE
Cosmos 1709 Rocket 4.1 00:18:50 44° SSW 00:20:50 70° W 00:26:56 10° N
H-2A R/B 3.6 00:20:10 10° NNE 00:23:16 35° ENE 00:23:16 35° ENE
Cosmos 2227 Rocket 3.1 00:21:48 21° WSW 00:25:16 44° WNW 00:30:42 10° N
CZ-4C R/B 4.3 00:28:53 37° NNE 00:28:53 37° NNE 00:31:22 10° N
ERBS 3.9 00:31:57 35° NW 00:31:57 35° NW 00:35:05 10° NNE
Cosmos 1933 4.1 00:29:36 10° NNW 00:33:07 47° WNW 00:33:07 47° WNW
CZ-4C R/B 4.3 00:30:04 10° NNW 00:36:03 30° NE 00:42:33 10° E
Cosmos 2333 Rocket 3.2 00:31:21 10° NW 00:36:24 33° WSW 00:37:13 31° WSW
Cosmos 2251 Rocket 4.4 00:31:30 10° N 00:36:28 38° ENE 00:37:28 35° E
H-2A R/B 4.1 00:37:13 15° WSW 00:38:55 17° W 00:42:26 10° NW
SL-16 R/B 2.0 00:33:55 10° NNW 00:39:37 81° WSW 00:40:16 70° S
Okean 1-7 3.2 00:37:37 10° N 00:41:25 67° NW 00:41:25 67° NW
Terra 4.0 00:42:23 14° WSW 00:43:21 14° W 00:45:54 10° WNW
Cosmos 1703 Rocket 4.3 00:39:32 10° NNW 00:43:29 44° W 00:43:29 44° W
GEOS 3 Rocket 3.5 00:43:13 67° ESE 00:43:55 81° NE 00:49:08 10° NNW
COS B Rocket 4.4 00:41:38 10° NNW 00:44:46 39° WNW 00:44:46 39° WNW
Cosmos 2181 Rocket 4.4 00:39:07 10° NNW 00:45:18 54° W 00:46:54 44° SW
Cosmos 44 Rocket 3.4 00:46:23 71° E 00:46:23 71° E 00:51:23 10° NE
Cosmos 1269 Rocket 4.3 00:41:25 10° NNW 00:46:34 53° WSW 00:46:49 52° WSW
Helios 1A Rocket 4.3 00:43:46 10° NNE 00:46:35 31° ENE 00:46:35 31° ENE
Cosmos 2221 Rocket 4.4 00:43:34 10° NNW 00:47:47 43° W 00:47:47 43° W
NOSS 2-3 (C) 3.8 00:47:45 84° S 00:47:55 88° ESE 00:53:33 10° NE
TSX-5 4.4 00:49:36 76° SSE 00:49:58 82° ESE 00:56:28 10° NNE
Cosmos 1782 4.4 00:48:30 10° NNE 00:51:19 26° ENE 00:51:19 26° ENE
Cosmos 2297 Rocket 3.4 00:49:44 23° WSW 00:52:37 38° WNW 00:57:53 10° N
Cosmos 2184 Rocket 3.9 00:54:15 63° S 00:55:23 88° W 01:01:37 10° N
Meteor 2-10 Rocket 3.9 00:49:58 10° N 00:55:31 60° ENE 00:56:12 55° ESE
Cosmos 1340 Rocket 3.9 00:58:58 39° NE 00:58:58 39° NE 01:01:40 10° NNE
CZ-2C R/B 3.4 00:55:33 10° NNE 01:00:08 36° E 01:00:08 36° E
Cosmos 2219 Rocket 4.2 00:57:49 10° WNW 01:00:39 14° W 01:01:20 14° WSW
Cosmos 1674 Rocket 4.4 00:57:34 10° N 01:01:27 43° ENE 01:01:27 43° ENE
FALCON 9 R/B 3.2 00:52:18 10° W 01:04:09 43° SW 01:04:09 43° SW
NOSS 2-3 (D) 4.1 01:08:20 58° W 01:09:03 66° NW 01:14:42 10° NNE
Cosmos 494 Rocket 4.5 01:04:11 10° N 01:09:19 51° ENE 01:09:58 48° E
Cosmos 921 Rocket 4.3 01:11:08 32° ENE 01:11:08 32° ENE 01:13:52 10° NNE
MOS 1-B Rocket 4.1 01:09:44 50° ESE 01:10:48 59° ENE 01:16:18 10° N
CZ-3 Stage 3 4.1 00:34:43 10° WSW 01:12:03 50° SSW 01:13:35 45° SSE
SeaSat 1 3.4 01:13:04 35° W 01:13:04 35° W 01:17:04 10° NW
Cosmos 1603 3.7 01:07:39 10° NNW 01:13:21 74° ENE 01:14:05 65° ESE
Cosmos 2341 Rocket 4.3 01:13:40 48° ESE 01:14:43 53° E 01:20:53 10° NNE
Cosmos 1689 Rocket 4.5 01:18:57 25° NNW 01:18:57 25° NNW 01:20:33 10° NNW
Uosat 12 SS-18 rocket 4.3 01:18:14 79° NNE 01:18:14 79° NNE 01:22:29 10° NNE
CZ-4B R/B 3.6 01:29:17 23° NW 01:29:17 23° NW 01:30:56 10° NNW
Cosmos 2237 Rocket 4.4 01:28:11 10° WNW 01:30:22 12° W 01:30:32 12° W
ASTEX 1 4.0 01:27:48 10° N 01:32:28 46° WNW 01:32:37 46° W
Cosmos 1238 Rocket 3.9 01:30:26 10° N 01:33:23 39° NNE 01:33:23 39° NNE
Lacrosse 4 Rocket 3.5 01:33:35 10° NW 01:35:38 20° WNW 01:35:38 20° WNW
ATLAS 2AS CENTAUR R/B 4.4 01:30:36 10° WSW 01:37:26 34° NW 01:44:39 10° NNE
COSMOS 2455 4.1 01:35:36 10° NW 01:40:11 27° W 01:40:11 27° W
Meteor 1-10 Rocket 4.3 01:35:11 10° NNW 01:41:06 70° W 01:41:43 65° SW
Sich 1 Rocket 3.8 01:42:15 69° NNW 01:42:15 69° NNW 01:46:18 10° N
Cosmos 1606 3.7 01:38:08 10° N 01:41:00 45° NNE 01:41:00 45° NNE
Cosmos 1356 Rocket 4.2 01:43:50 46° NNW 01:43:50 46° NNW 01:47:01 10° N
Cosmos 1733 Rocket 4.1 01:50:25 37° WNW 01:50:25 37° WNW 01:54:19 10° N
Cosmos 44 3.6 01:53:25 64° W 01:54:00 71° WNW 01:59:28 10° NNE
Okean 3 3.9 01:50:18 10° N 01:54:11 57° NE 01:54:11 57° NE
ATLAS 3B R/B 3.8 01:50:21 10° NW 01:55:35 26° WSW 01:55:35 26° WSW
Nadezhda 3 Rocket 4.2 01:55:37 10° NNW 02:01:39 55° W 02:02:34 51° WSW
USA 238 DEB 3.8 01:56:05 10° NW 02:02:52 53° WSW 02:03:38 51° SW
USA 238 3.8 01:56:11 10° NW 02:02:59 54° WSW 02:03:46 51° SW
Cosmos 1378 Rocket 3.8 01:59:38 10° N 02:03:25 64° NNW 02:03:25 64° NNW
Cosmos 2263 Rocket 2.1 02:14:09 65° SSE 02:14:49 73° ESE 02:20:30 10° NNE
Cosmos 1727 Rocket 4.3 02:11:28 10° N 02:17:38 58° E 02:19:43 40° SE
CZ-2C R/B 3.3 02:18:23 60° SW 02:19:00 64° WSW 02:24:39 10° NNW
Cosmos 1408 3.6 02:21:50 43° NNW 02:21:50 43° NNW 02:24:41 10° N
Okean 2 Rocket 3.1 02:21:51 78° NW 02:21:51 78° NW 02:26:13 10° N
USA 234 3.8 02:17:23 10° ESE 02:23:44 57° NE 02:30:07 10° NW
Cosmos 1825 3.2 02:25:30 41° NW 02:25:30 41° NW 02:28:23 10° N
CZ-4C R/B 2.8 02:18:05 10° NW 02:25:16 75° WSW 02:28:12 41° SSE
ERS-2 4.5 02:23:20 10° NE 02:25:33 16° E 02:25:33 16° E
Cosmos 1607 4.1 02:20:01 10° NW 02:25:54 50° WSW 02:26:06 50° WSW
Cosmos 1782 Rocket 3.9 02:26:28 57° WNW 02:26:28 57° WNW 02:30:30 10° N
Cosmos 1867 3.6 02:30:20 10° NNW 02:35:51 81° ENE 02:37:35 45° SE
NOSS 3-2 (C) 3.9 02:29:11 10° NW 02:36:47 87° WSW 02:41:52 26° SSE
BREEZE-M DEB (TANK) 4.4 02:20:41 10° WSW 02:37:02 57° NNW 02:41:22 10° NE
Meteor 1-27 Rocket 4.4 02:31:40 10° NNW 02:37:02 38° W 02:37:33 38° WSW
CZ-2C R/B 3.9 02:36:07 10° N 02:40:27 27° WNW 02:41:39 25° W
Cosmos 1624 Rocket 3.9 02:40:54 61° SSE 02:41:39 72° ESE 02:46:53 10° NNE
Meteor 1-14 Rocket 4.3 02:44:22 53° S 02:45:52 90° W 02:51:49 10° N
Iridium 4 Rocket 3.5 02:41:31 10° N 02:46:12 69° E 02:47:12 54° SSE
Cosmos 1943 3.6 02:42:24 10° NW 02:47:45 44° WSW 02:47:54 44° WSW
RESURS DK-1 2.3 02:48:34 80° NW 02:48:34 80° NW 02:52:39 10° NNE
Cosmos 1975 Rocket 4.0 02:45:23 10° NNW 02:48:53 35° WNW 02:48:53 35° WNW
NOSS 3-4 (A) 4.0 02:55:40 32° WSW 02:58:26 54° NW 03:04:54 10° NNE
NOSS 3-4 (C) 4.0 02:55:46 33° WSW 02:58:31 54° NW 03:04:59 10° NNE
SL-08 R/B 3.9 02:56:30 32° SE 02:58:37 57° ENE 03:03:26 10° N
NOSS 3-2 (A) 4.1 02:53:08 10° NW 03:00:30 55° WSW 03:03:36 36° S
Cosmos 1536 Rocket 3.4 02:57:00 10° N 03:01:24 90° W 03:01:54 70° S
Cosmos 1452 Rocket 4.3 03:01:34 33° SE 03:03:12 43° ESE 03:08:09 10° NNE
PSLV R/B 3.7 02:59:09 10° N 03:03:16 56° WNW 03:03:31 55° W
ARIANE 5 R/B 4.4 03:00:14 10° NE 03:04:04 22° E 03:06:51 14° SE
Abrixas rocket 2.9 03:04:44 56° NNE 03:04:44 56° NNE 03:07:40 10° NE
ADEOS 4.4 03:04:21 10° NNE 03:09:19 43° E 03:11:31 28° SSE
SL-16 R/B 4.2 03:04:50 10° ESE 03:10:09 31° ENE 03:15:29 10° N
Cosmos 1242 Rocket 3.4 03:07:33 10° NNW 03:10:08 39° NW 03:10:08 39° NW
CBERS-1 4.1 03:08:00 10° NNE 03:13:09 69° ESE 03:14:53 41° S
Cosmos 909 Rocket 4.2 03:10:46 38° SW 03:13:25 75° WNW 03:20:47 10° NNE
Meteor 1-18 Rocket 4.1 03:07:55 10° N 03:13:36 82° W 03:15:50 39° S
AQUA 3.8 03:11:57 10° NNE 03:16:44 74° ESE 03:18:06 46° S
Gbstr 26 Del rocket 3.4 03:18:19 41° SE 03:18:19 41° SE 03:21:50 10° ENE
USA 161 3.6 03:18:31 20° E 03:19:19 23° ENE 03:21:42 10° NNE
Cosmos 2151 Rocket 4.1 03:20:00 40° W 03:20:30 41° WNW 03:24:45 10° N
Landsat 4 4.3 03:21:32 42° W 03:21:32 42° W 03:24:45 10° NNW
Cosmos 1821 Rocket 4.3 03:18:45 28° SSE 03:22:11 67° E 03:28:32 10° NNE
NPP 3.6 03:16:55 10° NNE 03:22:19 83° WNW 03:24:16 41° SSW
Okean 1-7 Rocket 3.9 03:21:36 10° N 03:26:10 68° E 03:28:15 31° SSE
Cosmos 724 4.5 03:22:34 10° NNW 03:28:44 80° ENE 03:34:56 10° SE
Cosmos 1190 Rocket 4.0 03:25:57 10° NNW 03:31:06 60° WSW 03:32:49 39° SSW
Okean 1 Rocket 3.0 03:30:34 47° S 03:31:51 89° E 03:36:20 10° N
IRAS Rocket 4.3 03:28:22 10° N 03:33:50 64° WNW 03:36:07 35° SW
Cosmos 1536 4.2 03:34:27 20° SE 03:36:36 34° E 03:40:18 10° NNE
Meteor 1-20 Rocket 4.4 03:35:08 35° SSW 03:37:34 66° W 03:43:21 10° N
UNK 4.4 03:34:21 27° SSW 03:38:38 48° SSE 03:42:18 10° ENE
Meteor 1-11 Rocket 4.2 03:35:32 23° SSE 03:39:12 62° E 03:45:06 10° NNE
Cosmos 2056 Rocket 4.3 03:37:18 28° WSW 03:39:13 38° WNW 03:44:08 10° N
Okean O Rocket 4.3 03:38:21 10° ENE 03:40:01 12° E 03:41:40 10° ESE
Cosmos 1461 4.5 03:38:35 22° SSE 03:40:36 31° ESE 03:44:43 10° NE
CZ-2D R/B 3.2 03:38:25 10° NNE 03:43:31 39° E 03:47:44 14° SSE
Cosmos 1809 Rocket 4.4 03:40:25 30° SSW 03:43:40 83° W 03:49:50 10° N
Meteor 1-13 Rocket 4.3 03:39:02 10° N 03:44:45 81° E 03:49:20 17° SSE
COSMOS 2487 4.3 03:41:34 10° N 03:44:51 31° ENE 03:48:07 10° SE
NOSS 2-2 (E) 3.9 03:45:32 36° S 03:47:02 57° ESE 03:51:42 10° NE
Cosmos 407 Rocket 3.6 03:42:03 10° NNW 03:47:04 53° WSW 03:49:16 31° SSW
Spot 4 Rocket 4.0 03:44:05 10° NNE 03:49:16 86° ESE 03:52:01 29° SSW
GP-B 3.3 03:45:11 10° N 03:49:30 53° W 03:50:56 36° SW
Cosmos 676 Rocket 4.0 03:49:36 10° NNW 03:54:43 62° WSW 03:57:52 23° S
Cosmos 1844 Rocket 2.7 03:53:17 30° SSW 03:56:13 77° WNW 04:01:55 10° NNE
Meteor 2-21 4.5 03:52:59 28° SSW 03:56:17 67° W 04:02:23 10° N
Meteor 2-16 Rocket 4.5 03:54:32 22° S 03:58:43 86° E 04:04:54 10° N
Cosmos 2263 Rocket 4.1 03:55:50 11° W 03:59:20 18° NW 04:03:13 10° N
ERS-2 3.2 03:56:10 10° N 03:59:30 32° WNW 04:00:24 28° W
Cosmos 1025 Rocket 3.1 03:56:19 10° N 04:00:38 74° E 04:03:59 16° SSE
IRS-1C 4.5 03:57:34 10° N 04:02:45 52° WNW 04:05:33 26° SW
EO 1 Del DPAF 3.7 03:59:45 13° SSE 04:03:11 63° ENE 04:07:03 10° N
Cosmos 1844 3.7 03:59:55 26° SSW 04:03:13 90° S 04:09:00 10° NNE
Cosmos 1812 3.8 04:00:21 10° NNW 04:03:40 27° W 04:04:05 26° WSW
USA 234 3.5 04:00:42 10° SSE 04:06:49 43° SW 04:13:00 10° WNW
SME Rocket 3.4 04:05:01 10° SSE 04:08:40 60° ENE 04:12:43 10° N
IRS-1D 3.5 04:04:32 10° NNE 04:09:39 84° ESE 04:13:08 20° SSW
CZ-4C R/B 4.4 04:09:17 10° WNW 04:13:01 14° WSW 04:13:18 14° WSW
COSMOS 2406 3.9 04:08:20 10° NW 04:13:31 35° WSW 04:16:31 21° SSW
OPS 6432 4.3 04:15:37 31° SSW 04:17:05 76° ESE 04:20:12 10° NE
Cosmos 2278 Rocket 2.3 04:13:15 20° SSW 04:17:15 80° ESE 04:22:57 10° NNE
Cosmos 1400 Rocket 2.8 04:17:31 20° S 04:20:07 78° E 04:24:04 10° NNE
ATLAS 5 CENTAUR R/B 3.1 04:15:51 10° NNW 04:21:44 58° NE 04:28:01 10° SE
Cosmos 1954 Rocket 4.3 04:17:09 10° NNW 04:22:03 44° WSW 04:26:01 15° S
Cosmos 1544 Rocket 3.6 04:19:19 17° S 04:22:40 85° E 04:27:05 10° N
SL-27 R/B 4.1 04:20:36 10° NW 04:23:17 19° W 04:23:22 19° W
CENTAUR R/B 3.1 04:15:39 10° NW 04:23:29 68° WSW 04:31:42 10° SSE
BREEZE-M DEB (TANK) 3.1 04:26:29 20° S 04:27:35 26° SE 04:30:03 10° E
Resurs 1-4 Rocket 2.1 04:23:37 10° N 04:28:58 80° WNW 04:33:24 15° SSW
UNK 3.8 04:29:18 10° S 04:33:49 61° W 04:38:26 10° NNW
Timation 2 Rocket 4.1 04:28:23 10° NNW 04:34:33 76° ENE 04:40:32 10° SSE
ATLAS 2A CENTAUR R/B 4.3 04:28:33 17° SW 04:34:51 37° S 05:12:24 10° ESE
CZ-4B R/B 4.3 04:29:40 10° NNE 04:35:03 43° E 04:40:24 10° S
Cosmos 1447 Rocket 4.4 04:29:02 10° N 04:35:13 84° W 04:41:20 10° S
Cosmos 614 Rocket 3.9 04:30:01 10° NNW 04:35:13 84° WSW 04:40:19 10° SSE
Cosmos 2082 Rocket 3.5 04:30:49 10° N 04:36:16 44° ENE 04:41:41 10° SE
Meteor 2-4 Rocket 3.6 04:35:29 10° NNW 04:40:49 63° W 04:46:05 10° S
Abrixas rocket 4.5 04:39:10 10° WNW 04:41:53 22° N 04:44:35 10° NE
Cosmos 2061 Rocket 4.4 04:36:17 10° S 04:42:31 67° E 04:48:51 10° NNE
ARIANE 5 R/B 3.1 04:38:40 10° N 04:43:21 41° WNW 04:47:12 15° SW
BREEZE-M TANK 2.5 04:43:04 10° W 04:45:24 33° SSW 04:48:52 10° SE
Cosmos 1892 Rocket 3.7 04:41:17 10° NNW 04:45:31 51° W 04:49:42 10° S
Cosmos 1315 Rocket 2.8 04:42:36 11° S 04:46:30 87° W 04:50:34 10° N
Cosmos 1110 Rocket 4.5 04:44:08 10° S 04:49:21 62° ESE 04:54:35 10° NNE
USA 161 3.7 04:49:43 11° W 04:49:46 11° W 04:50:44 10° WNW
ADEOS II 4.5 04:49:35 10° NE 04:53:29 21° E 04:57:22 10° SE
SL-16 R/B 2.9 04:47:41 10° S 04:53:34 43° W 04:59:28 10° NNW
Thor Agena Rocket 4.0 04:51:23 10° SSE 04:56:31 67° ENE 05:01:37 10° N
Okean 2 3.7 04:53:22 10° NNW 04:57:19 48° W 05:01:16 10° SSW
Cosmos 1346 Rocket 4.3 04:56:17 10° N 05:00:08 40° ENE 05:03:56 10° SSE
Cosmos 1975 3.2 04:57:32 10° S 05:01:29 65° E 05:05:27 10° NNE
Okean-O 4.3 05:00:51 10° NNE 05:04:53 33° E 05:08:53 10° SSE
Gbstr 26 Del rocket 4.1 05:01:37 10° W 05:05:07 31° NNW 05:08:28 10° NE
USA 129 2.3 05:04:57 10° S 05:06:57 35° W 05:08:55 10° NNW
Cosmos 1633 4.3 05:05:39 11° WSW 05:08:06 18° WNW 05:10:43 10° NNW
Cosmos 1331 Rocket 4.1 05:07:14 10° SSW 05:12:29 88° ESE 05:17:42 10° NNE
CZ-2D R/B 3.9 05:10:38 10° N 05:14:25 42° WNW 05:18:14 10° SW
Cosmos 1602 Rocket 3.5 05:12:24 10° NNW 05:16:43 68° W 05:21:01 10° S
Okean O Rocket 1.8 05:12:28 10° N 05:16:45 58° WNW 05:21:00 10° SSW
UNKNOWN OBJECT B 4.0 05:14:19 10° N 05:17:51 28° WNW 05:21:21 10° SW
Cosmos 2016 Rocket 4.1 05:11:54 10° S 05:18:15 88° W 05:24:32 10° N
Cosmos 1461 4.3 05:15:35 10° WSW 05:19:46 31° NW 05:23:56 10° NNE
COSMOS 2487 4.4 05:18:09 10° WNW 05:20:10 14° W 05:22:11 10° SW
Cosmos 1833 Rocket 2.9 05:15:37 10° NNW 05:21:15 78° ENE 05:26:51 10° SSE
Cosmos 1515 4.0 05:19:28 10° N 05:23:17 73° E 05:27:06 10° SSE
CZ-2D R/B 3.3 05:18:51 10° N 05:23:23 28° WNW 05:27:57 10° WSW
Cosmos 1500 3.6 05:20:53 10° S 05:24:44 69° E 05:28:37 10° NNE
PSLV R/B 4.4 05:21:39 10° N 05:25:37 44° WNW 05:29:32 10° SW
